Time,TemperatureF,DewpointF,PressureIn,WindDirection,WindDirectionDegrees,WindSpeedMPH,WindSpeedGustMPH,Humidity,HourlyPrecipIn,Conditions,Clouds,dailyrainin,SoftwareType,DateUTC
2013-06-13 04:03:00,68.9,68.0,29.58,North,360,0.0,-999.0,96,-99.99,,,0.07,weatherlink.com 1.10,2013-06-13 08:03:00,
2013-06-13 04:08:00,69.0,68.0,29.58,North,360,0.0,-999.0,97,-99.99,,,0.07,weatherlink.com 1.10,2013-06-13 08:08:00,
2013-06-13 04:23:00,69.3,69.0,29.58,North,360,2.0,-999.0,97,-99.99,,,0.07,weatherlink.com 1.10,2013-06-13 08:23:00,
2013-06-13 04:38:00,69.5,69.0,29.58,SSW,200,2.0,-999.0,97,-99.99,,,0.07,weatherlink.com 1.10,2013-06-13 08:38:00,
2013-06-13 04:53:00,69.3,69.0,29.57,SSW,200,1.0,-999.0,97,-99.99,,,0.07,weatherlink.com 1.10,2013-06-13 08:53:00,
2013-06-13 05:08:00,69.1,69.0,29.57,SSW,200,0.0,-999.0,98,-99.99,,,0.07,weatherlink.com 1.10,2013-06-13 09:08:00,
2013-06-13 05:23:00,69.3,69.0,29.56,SSW,200,0.0,-999.0,98,-99.99,,,0.07,weatherlink.com 1.10,2013-06-13 09:23:00,
2013-06-13 05:38:00,69.4,69.0,29.58,SSW,200,1.0,-999.0,98,-99.99,,,0.07,weatherlink.com 1.10,2013-06-13 09:38:00,
2013-06-13 05:53:00,69.4,69.0,29.63,WNW,284,6.0,-999.0,98,-99.99,,,0.10,weatherlink.com 1.10,2013-06-13 09:53:00,
2013-06-13 06:08:00,67.7,67.0,29.61,NNE,23,8.0,-999.0,97,-99.99,,,0.38,weatherlink.com 1.10,2013-06-13 10:08:00,
2013-06-13 06:23:00,67.9,67.0,29.64,WNW,287,1.0,-999.0,98,-99.99,,,0.44,weatherlink.com 1.10,2013-06-13 10:23:00,
2013-06-13 06:38:00,67.8,67.0,29.64,NNW,341,3.0,-999.0,98,-99.99,,,0.48,weatherlink.com 1.10,2013-06-13 10:38:00,
2013-06-13 06:53:00,67.4,67.0,29.63,North,360,4.0,-999.0,98,-99.99,,,0.51,weatherlink.com 1.10,2013-06-13 10:53:00,
2013-06-13 07:09:00,67.2,67.0,29.65,North,360,4.0,-999.0,98,-99.99,,,0.52,weatherlink.com 1.10,2013-06-13 11:09:00,
2013-06-13 07:24:00,67.0,67.0,29.66,North,5,2.0,-999.0,98,-99.99,,,0.52,weatherlink.com 1.10,2013-06-13 11:24:00,
2013-06-13 07:39:00,65.8,65.0,29.66,North,355,7.0,-999.0,98,-99.99,,,0.52,weatherlink.com 1.10,2013-06-13 11:39:00,
2013-06-13 07:54:00,64.8,64.0,29.68,West,278,2.0,-999.0,97,-99.99,,,0.52,weatherlink.com 1.10,2013-06-13 11:54:00,
2013-06-13 08:09:00,64.1,63.0,29.69,NW,324,5.0,-999.0,97,-99.99,,,0.52,weatherlink.com 1.10,2013-06-13 12:09:00,
2013-06-13 08:24:00,63.8,63.0,29.70,North,360,5.0,-999.0,97,-99.99,,,0.52,weatherlink.com 1.10,2013-06-13 12:24:00,
2013-06-13 08:39:00,63.8,63.0,29.71,NNW,343,5.0,-999.0,97,-99.99,,,0.52,weatherlink.com 1.10,2013-06-13 12:39:00,
2013-06-13 08:54:00,63.7,63.0,29.72,NNE,19,3.0,-999.0,96,-99.99,,,0.52,weatherlink.com 1.10,2013-06-13 12:54:00,
2013-06-13 09:09:00,63.7,63.0,29.73,WNW,294,8.0,-999.0,96,-99.99,,,0.52,weatherlink.com 1.10,2013-06-13 13:09:00,
2013-06-13 09:24:00,63.9,63.0,29.74,North,360,2.0,-999.0,97,-99.99,,,0.52,weatherlink.com 1.10,2013-06-13 13:24:00,
2013-06-13 09:39:00,64.2,63.0,29.74,NE,45,3.0,-999.0,97,-99.99,,,0.52,weatherlink.com 1.10,2013-06-13 13:39:00,
2013-06-13 09:54:00,64.6,64.0,29.75,North,5,2.0,-999.0,97,-99.99,,,0.52,weatherlink.com 1.10,2013-06-13 13:54:00,
2013-06-13 10:09:00,65.0,64.0,29.76,NNW,343,5.0,-999.0,96,-99.99,,,0.52,weatherlink.com 1.10,2013-06-13 14:09:00,
2013-06-13 10:24:00,65.2,64.0,29.77,North,360,7.0,-999.0,96,-99.99,,,0.52,weatherlink.com 1.10,2013-06-13 14:24:00,
2013-06-13 10:39:00,64.8,63.0,29.78,NNE,17,5.0,-999.0,95,-99.99,,,0.52,weatherlink.com 1.10,2013-06-13 14:39:00,
2013-06-13 10:54:00,64.7,63.0,29.79,NNW,347,4.0,-999.0,95,-99.99,,,0.52,weatherlink.com 1.10,2013-06-13 14:54:00,
2013-06-13 11:09:00,65.5,64.0,29.80,NNW,338,9.0,-999.0,94,-99.99,,,0.52,weatherlink.com 1.10,2013-06-13 15:09:00,
2013-06-13 11:24:00,66.8,65.0,29.79,NNW,346,7.0,-999.0,92,-99.99,,,0.52,weatherlink.com 1.10,2013-06-13 15:24:00,
2013-06-13 11:39:00,68.4,64.0,29.80,North,360,6.0,-999.0,87,-99.99,,,0.52,weatherlink.com 1.10,2013-06-13 15:39:00,
2013-06-13 11:54:00,69.9,64.0,29.81,North,355,5.0,-999.0,82,-99.99,,,0.52,weatherlink.com 1.10,2013-06-13 15:54:00,
2013-06-13 12:09:00,71.6,64.0,29.81,NNE,32,1.0,-999.0,77,-99.99,,,0.52,weatherlink.com 1.10,2013-06-13 16:09:00,
2013-06-13 12:24:00,72.7,64.0,29.82,NNW,344,7.0,-999.0,75,-99.99,,,0.52,weatherlink.com 1.10,2013-06-13 16:24:00,
2013-06-13 12:39:00,73.1,63.0,29.82,NNE,24,4.0,-999.0,71,-99.99,,,0.52,weatherlink.com 1.10,2013-06-13 16:39:00,
2013-06-13 12:54:00,73.7,63.0,29.83,NNE,20,5.0,-999.0,69,-99.99,,,0.52,weatherlink.com 1.10,2013-06-13 16:54:00,
2013-06-13 13:09:00,74.1,62.0,29.84,NNW,347,6.0,-999.0,66,-99.99,,,0.52,weatherlink.com 1.10,2013-06-13 17:09:00,
2013-06-13 13:25:00,74.7,63.0,29.84,North,355,3.0,-999.0,66,-99.99,,,0.52,weatherlink.com 1.10,2013-06-13 17:25:00,
2013-06-13 13:40:00,75.0,63.0,29.85,North,11,4.0,-999.0,67,-99.99,,,0.52,weatherlink.com 1.10,2013-06-13 17:40:00,
2013-06-13 13:55:00,75.2,63.0,29.85,NNE,13,1.0,-999.0,67,-99.99,,,0.52,weatherlink.com 1.10,2013-06-13 17:55:00,
2013-06-13 14:10:00,74.5,61.0,29.85,North,360,9.0,-999.0,64,-99.99,,,0.52,weatherlink.com 1.10,2013-06-13 18:10:00,
2013-06-13 14:25:00,74.8,61.0,29.85,NNW,345,5.0,-999.0,63,-99.99,,,0.52,weatherlink.com 1.10,2013-06-13 18:25:00,
2013-06-13 14:40:00,75.0,61.0,29.86,NW,318,6.0,-999.0,63,-99.99,,,0.52,weatherlink.com 1.10,2013-06-13 18:40:00,
2013-06-13 14:55:00,75.9,62.0,29.86,WNW,294,11.0,-999.0,62,-99.99,,,0.52,weatherlink.com 1.10,2013-06-13 18:55:00,
2013-06-13 15:10:00,75.2,58.0,29.87,WNW,301,3.0,-999.0,56,-99.99,,,0.52,weatherlink.com 1.10,2013-06-13 19:10:00,
2013-06-13 15:25:00,75.3,58.0,29.87,NE,34,4.0,-999.0,56,-99.99,,,0.52,weatherlink.com 1.10,2013-06-13 19:25:00,
2013-06-13 15:40:00,75.2,56.0,29.87,NNE,30,4.0,-999.0,52,-99.99,,,0.52,weatherlink.com 1.10,2013-06-13 19:40:00,
2013-06-13 15:55:00,75.1,57.0,29.88,NNW,344,6.0,-999.0,54,-99.99,,,0.52,weatherlink.com 1.10,2013-06-13 19:55:00,
2013-06-13 16:10:00,75.0,57.0,29.88,NNW,343,12.0,-999.0,54,-99.99,,,0.52,weatherlink.com 1.10,2013-06-13 20:10:00,
2013-06-13 16:25:00,75.0,57.0,29.88,NNW,343,8.0,-999.0,54,-99.99,,,0.52,weatherlink.com 1.10,2013-06-13 20:25:00,
2013-06-13 16:40:00,74.9,58.0,29.89,North,350,5.0,-999.0,56,-99.99,,,0.52,weatherlink.com 1.10,2013-06-13 20:40:00,
2013-06-13 16:55:00,74.4,57.0,29.89,North,355,7.0,-999.0,55,-99.99,,,0.52,weatherlink.com 1.10,2013-06-13 20:55:00,
2013-06-13 17:10:00,74.2,57.0,29.89,NE,36,7.0,-999.0,56,-99.99,,,0.52,weatherlink.com 1.10,2013-06-13 21:10:00,
2013-06-13 17:25:00,74.0,60.0,29.89,NE,46,4.0,-999.0,61,-99.99,,,0.52,weatherlink.com 1.10,2013-06-13 21:25:00,
2013-06-13 17:40:00,73.7,60.0,29.89,North,355,7.0,-999.0,62,-99.99,,,0.52,weatherlink.com 1.10,2013-06-13 21:40:00,
2013-06-13 17:55:00,73.1,57.0,29.90,WNW,292,12.0,-999.0,58,-99.99,,,0.52,weatherlink.com 1.10,2013-06-13 21:55:00,
2013-06-13 18:10:00,72.9,58.0,29.90,North,350,3.0,-999.0,60,-99.99,,,0.52,weatherlink.com 1.10,2013-06-13 22:10:00,
2013-06-13 18:25:00,73.5,59.0,29.90,North,355,4.0,-999.0,60,-99.99,,,0.52,weatherlink.com 1.10,2013-06-13 22:25:00,
2013-06-13 18:40:00,72.6,58.0,29.89,North,11,6.0,-999.0,61,-99.99,,,0.52,weatherlink.com 1.10,2013-06-13 22:40:00,
2013-06-13 18:55:00,72.8,60.0,29.89,NE,47,1.0,-999.0,64,-99.99,,,0.52,weatherlink.com 1.10,2013-06-13 22:55:00,
2013-06-13 19:10:00,72.7,59.0,29.89,NE,34,5.0,-999.0,62,-99.99,,,0.52,weatherlink.com 1.10,2013-06-13 23:10:00,
2013-06-13 19:25:00,72.2,59.0,29.90,NW,321,5.0,-999.0,63,-99.99,,,0.52,weatherlink.com 1.10,2013-06-13 23:25:00,
2013-06-13 19:40:00,71.8,59.0,29.90,NNW,331,7.0,-999.0,64,-99.99,,,0.52,weatherlink.com 1.10,2013-06-13 23:40:00,
2013-06-13 19:55:00,70.8,58.0,29.91,NNE,20,4.0,-999.0,65,-99.99,,,0.52,weatherlink.com 1.10,2013-06-13 23:55:00,
2013-06-13 20:10:00,70.1,59.0,29.92,NW,319,5.0,-999.0,67,-99.99,,,0.52,weatherlink.com 1.10,2013-06-14 00:10:00,
2013-06-13 20:25:00,69.4,59.0,29.92,North,349,4.0,-999.0,69,-99.99,,,0.52,weatherlink.com 1.10,2013-06-14 00:25:00,
2013-06-13 20:40:00,68.7,59.0,29.93,NNW,338,0.0,-999.0,72,-99.99,,,0.52,weatherlink.com 1.10,2013-06-14 00:40:00,
2013-06-13 20:55:00,67.7,59.0,29.93,North,360,0.0,-999.0,74,-99.99,,,0.52,weatherlink.com 1.10,2013-06-14 00:55:00,
2013-06-13 21:10:00,66.6,59.0,29.93,North,5,2.0,-999.0,76,-99.99,,,0.52,weatherlink.com 1.10,2013-06-14 01:10:00,
2013-06-13 21:25:00,66.0,58.0,29.93,North,349,2.0,-999.0,76,-99.99,,,0.52,weatherlink.com 1.10,2013-06-14 01:25:00,
2013-06-13 21:40:00,65.6,58.0,29.94,North,360,2.0,-999.0,76,-99.99,,,0.52,weatherlink.com 1.10,2013-06-14 01:40:00,
2013-06-13 21:55:00,64.9,58.0,29.94,North,5,1.0,-999.0,78,-99.99,,,0.52,weatherlink.com 1.10,2013-06-14 01:55:00,
2013-06-13 22:10:00,64.5,58.0,29.95,North,355,0.0,-999.0,78,-99.99,,,0.52,weatherlink.com 1.10,2013-06-14 02:10:00,
2013-06-13 22:25:00,64.0,57.0,29.96,North,355,0.0,-999.0,78,-99.99,,,0.52,weatherlink.com 1.10,2013-06-14 02:25:00,
2013-06-13 22:40:00,63.4,57.0,29.96,North,350,0.0,-999.0,80,-99.99,,,0.52,weatherlink.com 1.10,2013-06-14 02:40:00,
2013-06-13 22:55:00,62.8,57.0,29.96,NNE,18,3.0,-999.0,80,-99.99,,,0.52,weatherlink.com 1.10,2013-06-14 02:55:00,
2013-06-13 23:10:00,62.5,57.0,29.96,NNE,18,1.0,-999.0,81,-99.99,,,0.52,weatherlink.com 1.10,2013-06-14 03:10:00,
2013-06-13 23:25:00,61.9,56.0,29.97,NNE,18,0.0,-999.0,82,-99.99,,,0.52,weatherlink.com 1.10,2013-06-14 03:25:00,
2013-06-13 23:40:00,61.5,56.0,29.96,NNE,18,1.0,-999.0,82,-99.99,,,0.52,weatherlink.com 1.10,2013-06-14 03:40:00,
2013-06-13 23:56:00,61.3,56.0,29.96,North,355,2.0,-999.0,83,-99.99,,,0.52,weatherlink.com 1.10,2013-06-14 03:56:00,